Astrocast 0.1 (43798 NORAD) Tracking and Keplerian Element Data

This shows tracking and keplerian element data for the satellite.

Feedback or suggestion? Click here.




ElementValue
Catalog43798
NameAstrocast 0.1
Epoch Orbit3382
Epoch Day199.14079947
Epoch Year2019
RAAN270.9537
Inclination97.7433
Eccentricity0.0011812
Argument of Perigee208.7904
Mean Anonmoly151.2666
Mean Motion14.95737368
Decay Rate4.19E-06
L11 43798U 18099AS 19199.14079947 .00000419 00000-0 42793-4 0 9991
L22 43798 97.7433 270.9537 0011812 208.7904 151.2666 14.95737368 33828

Live tracking and technical data element details for Astrocast 0.1 (NORAD 43798). Astrocast 0.1 can be tracked NOW for your location showing map with azimuth and elevation plus other details from your city location.

Track the satellite on the map from your city or location and see movement details for azimuth, elevation, latitude, longitude, range, height, and movement on the map or in text.







IsCatalogInMostPopularTable: catalog: 43798, numindb: 216
Update: records affected: 1



GetName: 43798 Astrocast 0.1

Hit Count: updated at: Mon, 22 Jul 2019 16:31:01 GMT